Temperature
19 19 19 20 20 20 20 20 20 20 20 20 20 19 19 19 19 19 19 19 19 19 19 19 19 18 18 18 18 18 18 18 18 18 18 17 17 17 17 17 17 17 17
20 20 20 20 20 20 20 20 20 20 20 20 20 20 19 19 19 19 19 19 19 19 19 19 19 19 18 18 18 18 18 18 18 17 17 17 17 17 17 17 17 17 17
21 20 20 20 20 20 20 20 20 20 20 20 20 19 19 19 19 19 19 19 19 19 19 19 19 19 18 18 18 18 18 18 17 17 17 17 17 17 17 17 17 17 17
21 20 20 20 20 20 20 20 20 20 20 20 20 19 19 19 19 19 19 19 19 19 19 19 19 18 18 18 18 18 18 17 17 17 17 17 17 17 17 17 17 17 17
21 20 20 20 20 20 20 20 20 20 20 20 20 19 19 19 19 19 19 19 19 19 19 18 18 18 18 18 18 18 18 17 17 17 17 17 17 17 17 17 17 17 17
20 20 20 20 20 20 20 20 20 20 20 20 19 19 19 19 19 19 19 19 19 19 19 18 18 18 18 18 18 18 17 17 17 17 17 17 17 17 17 17 17 17 17
20 20 20 20 20 20 20 20 19 19 19 19 19 19 19 19 19 19 19 19 19 19 18 18 18 18 18 18 17 17 17 17 17 17 17 17 17 17 17 17 17 17 17
20 20 20 20 20 20 20 20 19 19 19 19 19 19 19 19 19 19 19 19 19 18 18 18 18 18 18 17 17 17 17 17 17 17 17 17 17 17 17 17 17 17 17
20 20 20 19 19 19 19 19 19 19 19 19 19 19 19 18 18 18 18 18 18 18 18 18 18 18 18 17 17 17 17 17 18 18 18 17 17 17 17 17 17 17 17
20 20 19 19 19 19 19 19 19 19 19 19 19 19 19 18 18 18 18 18 18 18 18 18 18 18 18 17 17 17 17 17 17 18 18 17 17 17 17 17 17 17 17
19 19 19 19 19 19 19 19 19 19 19 19 19 19 19 18 18 18 18 18 18 18 18 18 18 18 17 17 17 17 17 17 17 17 17 17 17 17 17 17 17 17 17
19 19 19 19 19 19 19 19 19 19 19 19 19 18 18 18 18 18 18 18 18 18 18 18 18 18 17 17 17 17 17 17 17 17 17 17 17 17 17 17 17 17 17
19 19 19 19 19 19 19 19 19 19 18 18 18 18 18 18 18 18 17 17 17 17 17 17 17 18 17 17 17 17 17 17 17 17 17 17 17 17 17 17 17 17 17
19 19 19 19 19 19 19 19 19 18 18 18 18 18 18 18 17 17 17 17 17 17 17 17 17 17 17 17 17 17 17 17 17 17 17 17 17 17 17 17 17 17 17
19 19 19 19 19 19 19 19 18 18 18 18 18 18 18 17 17 17 17 17 17 17 17 17 17 17 17 17 17 17 17 17 17 17 17 17 17 17 17 17 17 17 17
19 19 19 19 19 19 19 18 18 18 18 18 18 18 17 17 17 17 17 17 17 17 17 17 16 17 17 16 17 17 17 17 17 17 17 17 17 17 17 17 17 17 17
19 19 19 19 19 18 18 18 18 18 18 18 17 17 17 17 17 17 17 17 17 16 16 16 16 16 16 16 16 16 16 16 17 17 17 17 17 17 17 17 17 17 17
19 19 19 18 18 18 18 18 18 18 17 17 17 17 17 17 17 16 16 16 16 16 16 16 16 16 16 16 16 16 16 16 16 16 16 16 16 16 17 17 17 16 16
18 18 18 18 18 18 18 18 18 17 17 17 17 17 17 16 16 16 16 16 16 16 16 15 15 15 15 15 15 16 16 16 16 16 16 16 16 16 16 16 16 16 16
18 18 18 18 18 18 18 17 17 17 17 17 17 17 16 16 16 16 16 16 15 15 15 15 15 15 15 15 15 15 15 16 16 16 16 16 16 16 16 16 16 16 16
18 18 18 18 18 18 17 17 17 17 17 17 16 16 16 16 16 15 15 15 15 15 15 15 14 14 14 14 15 15 15 15 15 15 15 15 16 16 16 16 16 16 16
18 18 18 18 18 17 17 17 17 17 17 16 16 16 16 16 15 15 15 15 14 14 14 14 14 14 14 14 14 14 14 15 15 15 15 15 15 15 15 16 16 16 16
18 18 18 18 17 17 17 17 17 17 17 16 16 16 16 15 15 15 15 14 14 14 14 14 13 13 13 13 13 13 13 14 14 14 14 14 15 15 15 15 15 15 16
18 18 18 18 17 17 17 17 17 17 16 16 16 15 15 15 15 15 14 14 14 14 13 13 13 13 13 13 13 13 13 13 13 13 14 14 14 14 15 15 15 15 15
18 18 18 18 17 17 17 17 17 16 16 16 15 15 15 15 15 14 14 14 14 13 13 13 13 13 13 13 12 12 12 12 12 12 13 13 14 14 14 14 15 15 15
18 18 18 18 17 17 17 17 16 16 16 16 15 15 15 15 14 14 14 14 13 13 13 13 13 12 12 12 12 12 12 12 12 12 12 12 13 13 14 14 14 14 14
Wind_Speed
9 13 19 19 19 19 20 20 20 20 20 19 19 18 17 16 16 15 14 12 12 11 10 11 11 11 11 11 12 12 13 13 13 14 14 14 15 15 16 16 16 16 18
13 17 20 20 20 19 20 20 19 19 19 18 18 17 16 15 15 14 13 12 11 11 11 11 11 11 11 12 12 12 12 13 13 13 14 14 14 15 16 16 15 15 18
16 17 20 20 20 20 19 19 19 18 18 17 17 16 15 14 13 13 12 11 11 10 10 11 11 11 11 11 12 12 12 12 12 13 13 12 13 14 15 15 16 16 16
16 17 18 20 20 20 19 19 18 18 17 16 15 15 14 13 12 11 11 10 10 10 10 10 10 11 11 11 11 11 11 11 11 12 10 10 11 14 14 15 16 16 16
13 15 19 21 20 19 19 18 17 17 16 15 15 14 13 12 11 10 10 9 9 9 9 9 10 10 10 10 10 10 10 10 10 10 8 8 10 14 15 15 15 15 16
11 14 18 21 20 19 18 17 16 16 15 15 14 13 12 11 11 10 9 9 8 8 8 8 9 9 9 8 8 8 8 9 9 8 8 9 10 14 14 15 15 15 15
10 12 17 20 19 19 18 17 16 15 15 14 13 13 12 11 10 9 9 8 8 7 7 7 7 7 7 7 7 6 6 7 8 8 8 9 10 13 14 14 14 14 15
10 10 14 18 19 18 17 16 15 14 14 13 12 11 11 10 10 9 8 8 7 7 7 7 6 6 6 5 5 4 4 5 7 8 9 10 11 13 13 14 14 14 14
9 8 9 12 15 16 16 16 15 14 13 12 11 11 10 9 9 9 8 7 7 7 7 6 6 5 4 3 3 3 3 5 6 7 9 10 12 13 13 14 14 14 14
7 7 7 9 10 12 13 14 14 14 13 12 11 11 10 10 9 9 8 7 6 6 6 6 5 5 4 3 2 2 2 4 4 5 7 10 13 14 14 14 14 14 14
8 6 6 6 8 9 10 12 13 13 12 11 10 10 10 8 8 8 8 8 7 6 6 6 5 5 4 3 3 3 2 2 3 3 6 10 14 15 15 15 15 15 15
10 8 5 6 6 7 8 9 8 9 9 9 7 7 7 6 5 6 6 7 7 7 7 6 5 4 3 2 2 2 2 3 3 4 6 10 14 16 17 17 16 16 15
9 8 6 5 5 6 4 6 6 6 6 6 6 6 5 4 3 3 2 3 3 4 4 3 3 3 3 2 2 2 2 3 4 5 6 10 14 17 18 18 18 17 16
8 7 6 6 5 5 4 4 5 4 4 4 5 5 5 3 2 2 1 1 1 1 2 2 1 2 3 3 3 3 3 3 4 5 7 8 13 17 18 19 19 19 18
8 7 7 6 6 4 4 3 4 4 4 5 5 5 6 4 2 2 1 1 1 2 2 1 1 1 2 2 2 3 4 4 5 6 7 8 11 15 18 19 19 19 19
7 6 6 6 6 5 4 3 4 5 5 5 4 5 6 5 3 2 1 1 1 1 1 1 1 1 0 1 2 2 4 4 5 6 7 8 10 14 17 19 19 19 20
6 5 6 6 6 6 5 4 4 5 6 4 4 5 6 5 5 3 2 2 1 2 3 3 2 1 0 1 2 3 3 4 4 5 7 8 9 11 15 19 19 19 20
5 5 5 6 6 5 4 4 4 5 5 4 5 5 6 6 6 4 3 2 2 3 3 2 1 1 1 1 2 2 3 3 4 5 5 7 8 9 12 16 18 20 21
5 5 6 6 6 6 5 4 4 4 4 4 5 5 5 5 6 5 3 3 4 3 2 1 2 1 1 2 3 2 3 3 4 5 5 6 8 9 10 13 16 19 19
5 5 7 6 6 6 5 4 4 4 3 3 3 4 4 5 6 6 4 4 4 3 3 2 2 2 1 1 2 3 3 3 3 3 4 5 6 7 9 10 11 14 17
5 5 6 7 5 5 4 3 3 3 2 2 2 3 4 5 6 6 4 3 3 3 2 2 2 2 2 2 2 3 3 3 3 2 2 2 3 5 6 7 9 10 12
5 5 6 7 6 5 4 3 3 3 3 2 2 3 3 4 5 5 4 3 3 3 3 2 2 1 1 2 1 1 3 4 3 3 2 2 3 3 3 4 6 8 10
7 7 8 7 6 6 5 4 4 4 4 3 2 2 2 2 4 4 5 4 3 3 2 2 2 2 1 1 1 2 1 2 3 3 3 3 4 3 3 4 4 5 7
8 7 7 7 6 6 6 6 6 4 3 2 1 1 2 3 2 3 4 4 3 2 2 1 2 1 2 0 1 0 1 2 1 3 3 3 4 4 4 4 5 5 4
8 7 7 6 6 5 6 6 6 5 3 2 2 2 2 2 3 2 3 4 3 2 2 2 2 2 2 2 1 0 0 0 1 2 4 4 4 3 4 5 4 5 5
7 7 7 7 5 5 6 6 7 7 6 5 3 2 1 1 2 2 3 3 2 2 2 2 2 2 2 2 2 2 2 1 2 2 3 3 4 4 4 4 3 4 5
Wind_Direction
155 157 154 147 138 132 127 125 123 123 124 125 127 129 130 131 132 131 130 128 124 119 115 111 108 106 105 104 106 108 109 112 114 117 119 119 117 116 115 113 113 113 115
147 155 154 149 143 137 133 129 127 127 127 128 129 130 131 133 133 133 133 131 126 122 117 113 112 111 109 109 110 111 114 116 118 121 123 121 121 120 119 119 118 120 119
144 153 154 151 147 142 137 134 133 132 131 131 132 133 134 135 136 136 135 132 129 124 120 118 117 115 113 112 114 116 118 119 120 121 120 120 124 125 125 126 126 123 123
145 150 154 153 150 146 142 140 139 138 137 137 137 138 139 139 139 138 136 133 131 128 125 123 121 119 117 116 116 119 121 122 120 118 117 125 131 134 132 131 130 128 127
141 147 156 155 152 149 147 145 144 143 143 143 144 144 145 145 144 141 140 139 136 132 129 128 126 124 122 120 119 120 124 128 129 122 121 126 134 140 137 135 134 133 131
138 147 158 156 154 153 152 151 149 149 150 150 151 152 153 153 151 150 149 146 142 139 137 135 133 130 128 126 124 122 130 133 131 133 131 133 140 145 143 141 140 139 136
136 148 159 158 157 157 157 156 156 157 158 158 159 160 161 160 160 160 160 157 154 151 145 142 140 139 135 131 127 120 126 133 135 144 146 147 152 153 151 148 146 144 142
139 145 157 162 161 162 161 161 162 164 165 165 166 167 168 168 169 169 171 171 170 166 160 156 150 150 146 139 130 119 118 132 141 153 159 161 165 162 159 155 152 151 149
137 138 151 162 165 165 165 165 166 169 171 171 172 174 176 177 179 181 184 187 184 181 178 174 168 166 164 155 140 128 121 128 138 157 168 172 176 172 168 164 162 160 158
140 142 148 157 159 163 167 169 170 174 175 176 178 181 184 187 191 193 194 197 197 199 199 196 195 192 188 181 175 168 141 126 141 161 174 181 184 181 177 174 173 170 168
158 154 153 153 152 156 163 173 175 178 180 180 185 188 190 194 199 205 207 208 209 214 219 220 218 214 213 212 213 199 169 145 159 177 188 195 193 190 187 185 184 181 178
170 170 161 154 151 153 168 170 171 173 175 176 179 184 185 190 202 212 220 223 223 223 228 232 233 229 227 241 259 232 185 185 197 215 216 211 203 199 195 192 192 190 188
167 171 166 157 156 158 158 154 157 155 158 167 173 173 170 179 199 208 215 242 239 226 228 238 239 245 234 228 251 248 216 204 220 236 236 225 212 205 203 198 196 196 196
164 173 164 159 159 164 154 159 159 154 159 167 173 173 167 168 178 188 200 223 228 203 199 208 243 254 256 247 238 240 238 227 232 240 250 242 222 213 210 206 202 200 200
171 173 168 162 164 155 149 163 159 159 166 170 170 183 180 170 176 177 178 183 176 168 172 161 171 229 264 269 258 248 248 240 235 238 252 261 240 222 218 213 210 208 205
163 165 163 162 156 152 157 157 152 156 159 164 172 178 173 168 166 153 134 116 122 147 140 120 129 134 53 305 296 288 274 259 245 239 248 260 255 236 227 223 220 219 213
161 159 161 155 145 153 159 164 157 156 157 160 160 161 158 156 147 136 123 105 101 103 99 91 79 72 356 313 306 306 291 273 259 247 249 254 259 250 238 229 225 224 222
149 148 152 146 135 136 140 138 138 141 143 145 148 150 150 149 141 133 120 107 100 90 93 93 71 59 1 333 309 301 296 289 281 269 259 254 255 252 246 237 230 231 229
146 143 131 123 131 133 128 117 119 121 122 134 136 136 142 142 137 128 115 106 101 87 78 76 72 78 15 332 303 291 293 289 287 280 267 260 256 254 251 246 240 239 236
132 142 129 129 135 129 113 100 92 89 89 108 124 131 136 136 134 123 111 105 104 89 69 65 72 59 38 327 316 312 303 298 291 279 277 276 269 261 253 250 246 245 244
132 136 136 140 145 136 125 125 121 118 107 91 105 122 128 134 136 130 125 115 111 103 96 90 90 60 25 1 7 336 327 326 315 300 297 291 296 288 272 260 251 248 251
144 155 152 156 155 150 140 130 127 122 110 97 77 88 108 134 144 145 140 134 126 113 98 88 95 93 23 28 70 34 349 342 343 357 347 346 333 331 321 294 270 256 252
163 171 168 160 150 142 130 115 96 77 65 63 58 55 45 116 151 152 152 144 138 132 138 132 127 131 121 16 52 126 123 294 315 327 345 353 346 337 329 319 306 285 266
178 167 159 150 142 139 137 137 136 136 142 159 137 95 51 71 115 151 153 153 150 146 152 163 139 137 138 145 355 12 185 187 244 315 322 336 343 340 333 323 316 309 296
176 164 155 148 144 144 143 142 134 131 138 126 107 95 69 46 63 112 146 155 156 158 169 170 149 146 154 171 192 202 134 93 209 232 291 318 328 319 318 312 311 315 321
168 159 155 153 154 150 145 143 146 148 148 140 137 130 97 52 35 67 123 142 158 168 182 187 178 173 181 186 194 193 192 203 212 215 254 287 302 302 309 304 302 308 314
Height
1520 1524 1527 1530 1533 1535 1537 1538 1540 1541 1543 1544 1546 1547 1548 1549 1550 1550 1551 1552 1553 1553 1554 1554 1555 1555 1556 1556 1556 1556 1556 1557 1557 1558 1559 1560 1560 1561 1562 1563 1564 1566 1567
1519 1524 1528 1531 1534 1536 1538 1540 1542 1543 1544 1546 1547 1548 1549 1550 1551 1552 1553 1554 1554 1555 1555 1556 1556 1557 1557 1557 1558 1558 1558 1559 1559 1560 1561 1562 1563 1563 1564 1566 1567 1568 1569
1519 1524 1528 1532 1535 1537 1539 1541 1543 1544 1546 1547 1549 1550 1551 1552 1553 1554 1555 1555 1556 1557 1557 1558 1558 1558 1559 1559 1560 1560 1560 1561 1561 1562 1563 1564 1565 1566 1567 1568 1569 1570 1571
1520 1525 1529 1533 1536 1538 1540 1542 1544 1546 1547 1549 1550 1551 1553 1554 1555 1555 1556 1557 1558 1558 1559 1559 1560 1560 1561 1561 1562 1562 1563 1563 1564 1564 1565 1566 1567 1568 1569 1570 1571 1572 1573
1522 1526 1530 1534 1537 1539 1542 1544 1545 1547 1548 1550 1551 1553 1554 1555 1556 1557 1558 1558 1559 1560 1560 1561 1561 1562 1563 1563 1564 1564 1565 1565 1566 1566 1567 1568 1569 1570 1571 1572 1573 1574 1575
1523 1527 1531 1534 1538 1540 1543 1545 1547 1548 1550 1551 1552 1554 1555 1556 1557 1558 1559 1560 1560 1561 1562 1562 1563 1564 1564 1565 1566 1567 1567 1568 1568 1568 1569 1570 1571 1572 1573 1574 1575 1576 1577
1525 1529 1533 1536 1539 1541 1544 1546 1548 1549 1551 1552 1553 1555 1556 1557 1558 1559 1560 1561 1562 1562 1563 1564 1565 1565 1566 1567 1568 1568 1569 1570 1570 1570 1571 1571 1572 1573 1574 1575 1577 1578 1579
1526 1530 1534 1537 1540 1542 1544 1546 1549 1550 1552 1553 1554 1555 1557 1558 1558 1559 1561 1562 1563 1563 1564 1565 1566 1566 1567 1568 1569 1570 1570 1571 1571 1572 1572 1573 1574 1575 1576 1577 1578 1579 1580
1527 1530 1534 1537 1540 1543 1545 1547 1549 1551 1553 1554 1555 1556 1557 1558 1559 1560 1561 1562 1563 1564 1565 1566 1567 1567 1568 1569 1570 1571 1571 1572 1573 1573 1573 1574 1574 1576 1577 1578 1579 1580 1581
1528 1531 1534 1537 1540 1543 1545 1547 1549 1551 1553 1554 1555 1557 1558 1559 1560 1560 1561 1562 1564 1565 1566 1566 1567 1568 1569 1569 1570 1571 1572 1573 1573 1574 1574 1575 1575 1576 1577 1578 1580 1581 1582
1528 1531 1534 1537 1540 1543 1545 1547 1549 1551 1553 1554 1555 1557 1558 1559 1559 1561 1561 1562 1563 1564 1566 1566 1567 1568 1569 1569 1570 1571 1572 1572 1573 1574 1575 1575 1576 1576 1577 1578 1580 1581 1582
1526 1530 1534 1537 1540 1543 1545 1547 1549 1551 1553 1554 1555 1556 1557 1559 1560 1560 1561 1562 1563 1564 1565 1566 1567 1567 1568 1569 1570 1571 1571 1572 1573 1574 1574 1575 1575 1576 1577 1578 1579 1581 1582
1526 1530 1533 1537 1540 1543 1545 1547 1549 1551 1553 1554 1555 1556 1557 1558 1559 1560 1561 1561 1562 1563 1564 1565 1566 1567 1567 1568 1569 1570 1570 1571 1572 1573 1573 1574 1575 1575 1576 1577 1579 1580 1581
1525 1529 1533 1536 1540 1543 1545 1547 1549 1551 1552 1553 1554 1555 1557 1558 1558 1559 1560 1560 1561 1562 1563 1563 1565 1565 1566 1567 1567 1568 1569 1570 1570 1571 1571 1572 1573 1574 1575 1576 1577 1578 1580
1526 1529 1533 1536 1540 1542 1544 1547 1548 1550 1552 1553 1554 1555 1556 1557 1557 1558 1559 1559 1560 1561 1561 1562 1563 1563 1564 1565 1566 1566 1567 1568 1568 1569 1569 1570 1571 1572 1573 1574 1576 1577 1578
1525 1528 1532 1535 1539 1542 1544 1547 1548 1550 1551 1552 1553 1554 1555 1556 1556 1557 1557 1558 1559 1559 1560 1560 1561 1562 1562 1563 1564 1564 1564 1565 1566 1566 1567 1568 1569 1570 1571 1572 1573 1575 1576
1525 1529 1532 1534 1538 1541 1544 1546 1548 1549 1550 1552 1553 1554 1555 1555 1556 1556 1556 1557 1557 1558 1558 1559 1559 1560 1560 1561 1561 1562 1562 1563 1563 1563 1564 1565 1566 1567 1567 1568 1570 1571 1573
1525 1529 1532 1534 1537 1540 1543 1545 1547 1548 1550 1551 1552 1553 1554 1554 1555 1555 1556 1556 1557 1557 1557 1557 1558 1558 1558 1558 1559 1559 1560 1560 1560 1561 1561 1562 1562 1563 1564 1565 1566 1568 1569
1526 1529 1531 1534 1537 1540 1542 1544 1546 1547 1549 1550 1552 1553 1553 1554 1554 1555 1556 1556 1556 1556 1556 1556 1556 1556 1556 1556 1556 1557 1557 1557 1557 1558 1558 1558 1559 1560 1560 1562 1563 1564 1566
1525 1529 1531 1534 1536 1539 1541 1543 1545 1547 1548 1550 1551 1552 1552 1553 1554 1554 1555 1555 1555 1555 1555 1555 1555 1555 1555 1554 1554 1554 1554 1554 1554 1554 1554 1555 1555 1556 1557 1558 1559 1560 1562
1525 1528 1531 1534 1536 1539 1541 1542 1544 1546 1547 1549 1550 1551 1552 1553 1553 1554 1554 1554 1554 1554 1554 1554 1554 1553 1553 1553 1552 1552 1551 1551 1551 1551 1551 1551 1552 1552 1553 1554 1555 1556 1558
1524 1528 1530 1534 1536 1539 1540 1542 1544 1545 1546 1548 1549 1550 1551 1552 1552 1553 1553 1553 1553 1553 1553 1553 1553 1552 1552 1551 1551 1550 1549 1550 1549 1549 1549 1549 1549 1549 1550 1551 1551 1552 1554
1525 1528 1530 1533 1535 1537 1540 1541 1543 1544 1546 1547 1548 1549 1550 1551 1551 1552 1552 1552 1552 1552 1552 1551 1551 1551 1550 1550 1550 1550 1549 1548 1548 1548 1547 1547 1547 1547 1548 1548 1549 1549 1550
1525 1528 1530 1533 1535 1537 1539 1540 1542 1543 1544 1546 1547 1548 1549 1549 1550 1550 1550 1551 1551 1551 1550 1550 1549 1549 1549 1549 1548 1548 1548 1547 1547 1546 1546 1545 1545 1545 1546 1546 1546 1546 1547
1524 1527 1530 1532 1535 1537 1538 1540 1541 1542 1544 1544 1545 1546 1547 1548 1548 1548 1549 1549 1549 1549 1549 1548 1548 1547 1547 1547 1546 1546 1546 1545 1545 1544 1543 1543 1543 1543 1543 1543 1543 1544 1544
1524 1527 1529 1532 1534 1536 1537 1539 1540 1541 1542 1543 1544 1545 1545 1546 1546 1546 1547 1547 1547 1547 1547 1546 1546 1545 1545 1544 1544 1544 1543 1543 1543 1542 1541 1540 1539 1540 1540 1540 1540 1541 1541